Weather History for Janesville, WI

Change the Weather History Date:

Monday, March 17, 2014

  Actual Average Record
Temperature  
Mean Temperature 27 °F -  
Max Temperature 39 °F 43 °F 80 °F (2012)
Min Temperature 15 °F 25 °F 9 °F (1993)
Degree Days  
Heating Degree Days 38    
Moisture  
Dew Point 14 °F    
Average Humidity 66    
Maximum Humidity 80    
Minimum Humidity 28    
Precipitation  
Precipitation 0.00 in - - ()
Sea Level Pressure  
Sea Level Pressure 29.94 in    
Wind  
Wind Speed 6 mph (SE)    
Max Wind Speed 16 mph    
Max Gust Speed 22 mph    
Visibility 10 miles    
Events      
Averages and records for this station are not official NWS values.
T = Trace of Precipitation, MM = Missing Value Source: NWS Daily Summary

Daily Weather History Graph

Daily Weather History Graph

Search for Another Location

Airport:

Trip Planner

Search our weather history database for the weather conditions in past years. The results will help you decide how hot, cold, wet, or windy it might be!

Date:

Astronomy

Mar. 17, 2014 Rise Set
Actual Time 7:04 AM CDT 7:04 PM CDT
Civil Twilight 6:36 AM CDT 7:33 PM CDT
Nautical Twilight 6:03 AM CDT 8:05 PM CDT
Astronomical Twilight 5:30 AM CDT 8:39 PM CDT
Moon 8:24 PM CDT (3/17) 7:18 AM CDT (3/17)
Length of Visible Light 12h 56m
Length of Day
12h 00m
Full, 99% of the Moon is Illuminated
Mar 17
Full
Mar 23
Last Quarter
Mar 30
New
Apr 7
First Quarter
Apr 15
Full

Hourly Weather History & Observations

Time (CDT) Temp. Windchill Dew Point Humidity Pressure Visibility Wind Dir Wind Speed Gust Speed Precip Events Conditions
12:20 AM 17.6 °F 10.7 °F 10.4 °F 73% 30.15 in 10.0 mi ENE 4.6 mph - N/A   Clear
12:35 AM 19.4 °F 11.5 °F 10.4 °F 68% 30.15 in 10.0 mi ENE 5.8 mph - N/A   Clear
12:55 AM 19.4 °F 11.5 °F 10.4 °F 68% 30.14 in 10.0 mi East 5.8 mph - N/A   Clear
1:15 AM 19.4 °F 11.5 °F 10.4 °F 68% 30.12 in 10.0 mi East 5.8 mph - N/A   Clear
1:35 AM 17.6 °F 12.3 °F 10.4 °F 73% 30.12 in 10.0 mi ENE 3.5 mph - N/A   Clear
1:55 AM 17.6 °F 12.3 °F 10.4 °F 73% 30.10 in 10.0 mi NE 3.5 mph - N/A   Clear
2:15 AM 17.6 °F - 10.4 °F 73% 30.10 in 10.0 mi Calm Calm - N/A   Clear
2:35 AM 17.6 °F - 10.4 °F 73% 30.09 in 10.0 mi Calm Calm - N/A   Clear
2:55 AM 17.6 °F - 10.4 °F 73% 30.08 in 10.0 mi Calm Calm - N/A   Clear
3:15 AM 17.6 °F 12.3 °F 10.4 °F 73% 30.06 in 10.0 mi ENE 3.5 mph - N/A   Clear
3:35 AM 17.6 °F 10.7 °F 10.4 °F 73% 30.04 in 10.0 mi East 4.6 mph - N/A   Clear
3:55 AM 17.6 °F 10.7 °F 10.4 °F 73% 30.04 in 10.0 mi ENE 4.6 mph - N/A   Clear
4:15 AM 17.6 °F 10.7 °F 10.4 °F 73% 30.03 in 10.0 mi East 4.6 mph - N/A   Clear
4:35 AM 17.6 °F 10.7 °F 10.4 °F 73% 30.03 in 10.0 mi East 4.6 mph - N/A   Clear
4:55 AM 17.6 °F - 10.4 °F 73% 30.02 in 10.0 mi Calm Calm - N/A   Clear
5:15 AM 17.6 °F - 10.4 °F 73% 30.01 in 10.0 mi Calm Calm - N/A   Clear
5:35 AM 17.6 °F 10.7 °F 12.2 °F 79% 30.00 in 10.0 mi East 4.6 mph - N/A   Clear
5:45 AM 15.8 °F 10.2 °F 10.4 °F 79% 29.99 in 10.0 mi East 3.5 mph - N/A   Clear
6:45 AM 15.8 °F 10.2 °F 10.4 °F 79% 29.99 in 10.0 mi ESE 3.5 mph - N/A   Clear
7:45 AM 17.6 °F 7.3 °F 12.2 °F 79% 29.95 in 10.0 mi SE 8.1 mph - N/A   Mostly Cloudy
8:45 AM 23.0 °F 11.7 °F 15.8 °F 74% 29.97 in 10.0 mi SE 11.5 mph - N/A   Clear
9:45 AM 24.8 °F 14.0 °F 12.2 °F 59% 29.96 in 10.0 mi SSE 11.5 mph - N/A   Mostly Cloudy
10:45 AM 28.4 °F 18.5 °F 8.6 °F 43% 29.94 in 10.0 mi SSE 11.5 mph - N/A   Mostly Cloudy
11:45 AM 32.0 °F 23.0 °F 8.6 °F 38% 29.89 in 10.0 mi SSE 11.5 mph 17.3 mph N/A   Mostly Cloudy
1:45 PM 35.6 °F 25.9 °F 6.8 °F 30% 29.83 in 10.0 mi South 16.1 mph 21.9 mph N/A   Mostly Cloudy
2:45 PM 37.4 °F 28.9 °F 6.8 °F 28% 29.78 in 10.0 mi SSE 13.8 mph 19.6 mph N/A   Mostly Cloudy
3:45 PM 39.2 °F 30.8 °F 10.4 °F 31% 29.76 in 10.0 mi SSE 15.0 mph 20.7 mph N/A   Mostly Cloudy
4:45 PM 37.4 °F 29.8 °F 12.2 °F 36% 29.76 in 10.0 mi South 11.5 mph 18.4 mph N/A   Mostly Cloudy
5:45 PM 37.4 °F 29.8 °F 15.8 °F 41% 29.75 in 10.0 mi South 11.5 mph 17.3 mph N/A   Clear
6:45 PM - - - N/A% 29.74 in 10.0 mi SSE 13.8 mph - N/A   Clear
7:45 PM 33.8 °F 25.3 °F 21.2 °F 60% 29.75 in 10.0 mi SSE 11.5 mph 17.3 mph N/A   Clear
8:45 PM 33.8 °F 27.0 °F 21.2 °F 60% 29.76 in 10.0 mi SE 8.1 mph - N/A   Clear
9:15 PM 32.0 °F 24.2 °F 23.0 °F 69% 29.78 in 10.0 mi SSE 9.2 mph - N/A   Clear
9:35 PM 32.0 °F 24.8 °F 23.0 °F 69% 29.79 in 10.0 mi SSE 8.1 mph - N/A   Clear
9:55 PM 32.0 °F 24.2 °F 23.0 °F 69% 29.79 in 10.0 mi SSE 9.2 mph - N/A   Clear
10:35 PM 32.0 °F 24.8 °F 24.8 °F 75% 29.80 in 10.0 mi SSE 8.1 mph - N/A   Clear
10:55 PM 32.0 °F 24.8 °F 24.8 °F 75% 29.79 in 10.0 mi SSE 8.1 mph - N/A   Clear
11:15 PM 32.0 °F 24.2 °F 26.6 °F 80% 29.78 in 10.0 mi SSE 9.2 mph - N/A   Clear
11:35 PM 32.0 °F 24.2 °F 26.6 °F 80% 29.79 in 10.0 mi SSE 9.2 mph - N/A   Clear
11:55 PM 32.0 °F 25.6 °F 26.6 °F 80% 29.79 in 10.0 mi SSE 6.9 mph - N/A   Clear